^^
Saratoga-Weather Station Historical Data
Daily Summary for January 1, 2021 Units:  Both    English   Metric
Daily Weekly Monthly Yearly Custom
  High: Low: Average:
Temperature: 37 °F /  2.8 °C 36 °F /  2.2 °C 36.5 °F /  2.5 °C
Dew Point: 36.5 °F /  2.5 °C 35.2 °F /  1.8 °C 35.8 °F /  2.1 °C
Humidity: 98% 97% 97%
Wind Speed: 2mph /  3.2km/h - 0.2mph /  0.4km/h
Wind Gust: 3mph /  4.8km/h - -
Wind- - East
Pressure: 29.3 in /  991.5 hPa 29.2 in /  989.2 hPa -
Precipitation: 0.07 in /  1.8 mm    
Historical Graphs
 
 
Tabular Data for January 1, 2021
Time Temperature Dew Point Pressure Wind Wind Speed Wind Gust Humidity Rainfall Rate (Hourly) solar
00:04 36 °F /  2.2 °C 35.2 °F /  1.8 °C 29.3in /  991.5hPa Calm   2mph /  3.2km/h 97% 0.04in /  1.0mm 0 W/m2
00:09 36 °F /  2.2 °C 35.2 °F /  1.8 °C 29.3in /  991.5hPa SE 0.9mph /  1.4km/h 2mph /  3.2km/h 97% 0.03in /  0.8mm 0 W/m2
00:14 36 °F /  2.2 °C 35.2 °F /  1.8 °C 29.3in /  991.2hPa SE 0.9mph /  1.4km/h 2mph /  3.2km/h 97% 0.04in /  1.0mm 0 W/m2
00:19 36 °F /  2.2 °C 35.2 °F /  1.8 °C 29.3in /  991.2hPa ESE 2mph /  3.2km/h 2mph /  3.2km/h 97% 0.04in /  1.0mm 0 W/m2
00:24 36 °F /  2.2 °C 35.2 °F /  1.8 °C 29.3in /  991.2hPa NE 0.9mph /  1.4km/h 3mph /  4.8km/h 97% 0.04in /  1.0mm 0 W/m2
00:29 36 °F /  2.2 °C 35.2 °F /  1.8 °C 29.3in /  991.2hPa Calm     97% 0.04in /  1.0mm 0 W/m2
00:34 36 °F /  2.2 °C 35.2 °F /  1.8 °C 29.3in /  990.9hPa ENE 2mph /  3.2km/h 3mph /  4.8km/h 97% 0.04in /  1.0mm 0 W/m2
00:39 36.1 °F /  2.3 °C 35.4 °F /  1.9 °C 29.3in /  991.2hPa Calm     97% 0.04in /  1.0mm 0 W/m2
00:44 36.1 °F /  2.3 °C 35.4 °F /  1.9 °C 29.3in /  990.9hPa ESE 0.9mph /  1.4km/h 1mph /  1.6km/h 97% 0.03in /  0.8mm 0 W/m2
00:49 36.1 °F /  2.3 °C 35.4 °F /  1.9 °C 29.3in /  990.9hPa ESE 0.9mph /  1.4km/h 2mph /  3.2km/h 97% 0.04in /  1.0mm 0 W/m2
00:54 36.1 °F /  2.3 °C 35.4 °F /  1.9 °C 29.3in /  990.9hPa Calm   1mph /  1.6km/h 97% 0.04in /  1.0mm 0 W/m2
00:59 36.1 °F /  2.3 °C 35.4 °F /  1.9 °C 29.3in /  990.9hPa Calm     97% 0.04in /  1.0mm 0 W/m2
01:04 36.1 °F /  2.3 °C 35.4 °F /  1.9 °C 29.3in /  990.9hPa ESE 0.9mph /  1.4km/h 1mph /  1.6km/h 97% 0.04in /  1.0mm 0 W/m2
01:09 36.1 °F /  2.3 °C 35.4 °F /  1.9 °C 29.3in /  990.9hPa Calm     97% 0.04in /  1.0mm 0 W/m2
01:14 36.1 °F /  2.3 °C 35.4 °F /  1.9 °C 29.3in /  990.9hPa Calm     97% 0.03in /  0.8mm 0 W/m2
01:19 36.1 °F /  2.3 °C 35.4 °F /  1.9 °C 29.3in /  990.9hPa Calm   2mph /  3.2km/h 97% 0.04in /  1.0mm 0 W/m2
01:24 36.1 °F /  2.3 °C 35.4 °F /  1.9 °C 29.3in /  990.9hPa Calm     97% 0.03in /  0.8mm 0 W/m2
01:29 36.3 °F /  2.4 °C 35.6 °F /  2 °C 29.3in /  990.5hPa ESE 0.9mph /  1.4km/h 2mph /  3.2km/h 97% 0.03in /  0.8mm 0 W/m2
01:34 36.3 °F /  2.4 °C 35.6 °F /  2 °C 29.3in /  990.5hPa ENE 0.9mph /  1.4km/h 1mph /  1.6km/h 97% 0.02in /  0.5mm 0 W/m2
01:39 36.3 °F /  2.4 °C 35.6 °F /  2 °C 29.3in /  990.5hPa Calm     97% 0.02in /  0.5mm 0 W/m2
01:44 36.3 °F /  2.4 °C 35.6 °F /  2 °C 29.3in /  990.5hPa Calm     97% 0.02in /  0.5mm 0 W/m2
01:49 36.3 °F /  2.4 °C 35.6 °F /  2 °C 29.3in /  990.5hPa Calm     97% 0.02in /  0.5mm 0 W/m2
01:54 36.3 °F /  2.4 °C 35.6 °F /  2 °C 29.2in /  990.2hPa Calm     97% 0.02in /  0.5mm 0 W/m2
01:59 36.5 °F /  2.5 °C 35.8 °F /  2.1 °C 29.2in /  990.2hPa Calm     97% 0.02in /  0.5mm 0 W/m2
02:04 36.5 °F /  2.5 °C 35.8 °F /  2.1 °C 29.2in /  990.2hPa ESE 0.9mph /  1.4km/h 1mph /  1.6km/h 97% 0.02in /  0.5mm 0 W/m2
02:09 36.7 °F /  2.6 °C 36 °F /  2.2 °C 29.2in /  990.2hPa Calm     97% 0.02in /  0.5mm 0 W/m2
02:14 36.7 °F /  2.6 °C 36 °F /  2.2 °C 29.2in /  990.2hPa Calm     97% 0.02in /  0.5mm 0 W/m2
02:19 36.7 °F /  2.6 °C 36 °F /  2.2 °C 29.2in /  990.2hPa Calm     97% 0.01in /  0.2mm 0 W/m2
02:24 36.7 °F /  2.6 °C 36 °F /  2.2 °C 29.2in /  990.2hPa Calm     97% 0.01in /  0.2mm 0 W/m2
02:29 36.7 °F /  2.6 °C 36 °F /  2.2 °C 29.2in /  989.8hPa ESE 0.9mph /  1.4km/h 2mph /  3.2km/h 97% 0.01in /  0.2mm 0 W/m2
02:34 36.7 °F /  2.6 °C 36 °F /  2.2 °C 29.2in /  989.8hPa Calm     97% 0.01in /  0.2mm 0 W/m2
02:39 36.7 °F /  2.6 °C 36 °F /  2.2 °C 29.2in /  989.8hPa Calm   2mph /  3.2km/h 97% 0.01in /  0.2mm 0 W/m2
02:44 36.7 °F /  2.6 °C 36 °F /  2.2 °C 29.2in /  989.8hPa Calm     97% 0.01in /  0.2mm 0 W/m2
02:49 36.9 °F /  2.7 °C 36.1 °F /  2.3 °C 29.2in /  989.8hPa Calm     97% 0.01in /  0.2mm 0 W/m2
02:54 36.9 °F /  2.7 °C 36.1 °F /  2.3 °C 29.2in /  989.8hPa Calm     97% 0in /  0.0mm 0 W/m2
02:59 36.9 °F /  2.7 °C 36.3 °F /  2.4 °C 29.2in /  989.8hPa Calm     98% 0in /  0.0mm 0 W/m2
03:04 36.9 °F /  2.7 °C 36.3 °F /  2.4 °C 29.2in /  989.8hPa Calm     98% 0in /  0.0mm 0 W/m2
03:09 36.9 °F /  2.7 °C 36.3 °F /  2.4 °C 29.2in /  989.8hPa Calm     98% 0.01in /  0.2mm 0 W/m2
03:14 36.9 °F /  2.7 °C 36.3 °F /  2.4 °C 29.2in /  989.5hPa Calm     98% 0.01in /  0.2mm 0 W/m2
03:19 37 °F /  2.8 °C 36.5 °F /  2.5 °C 29.2in /  989.5hPa Calm     98% 0.01in /  0.2mm 0 W/m2
03:24 37 °F /  2.8 °C 36.5 °F /  2.5 °C 29.2in /  989.5hPa Calm     98% 0.02in /  0.5mm 0 W/m2
03:29 37 °F /  2.8 °C 36.5 °F /  2.5 °C 29.2in /  989.5hPa Calm   1mph /  1.6km/h 98% 0.02in /  0.5mm 0 W/m2
03:34 37 °F /  2.8 °C 36.5 °F /  2.5 °C 29.2in /  989.5hPa Calm     98% 0.02in /  0.5mm 0 W/m2
03:39 37 °F /  2.8 °C 36.5 °F /  2.5 °C 29.2in /  989.5hPa Calm   1mph /  1.6km/h 98% 0.02in /  0.5mm 0 W/m2
03:44 37 °F /  2.8 °C 36.5 °F /  2.5 °C 29.2in /  989.2hPa Calm     98% 0.02in /  0.5mm 0 W/m2
03:49 37 °F /  2.8 °C 36.5 °F /  2.5 °C 29.2in /  989.5hPa Calm     98% 0.02in /  0.5mm 0 W/m2
Juneau County Weather
Compliments of Weather Underground - 4 mb